STARLINK-3792, 52339

Orbit data source: Space-Track

STARLINK-3792, 52339 is a payload satellite owned by SpaceX/Seattle (US) in LEO that was launched on Fri, 29 Apr 2022 UTC via an FALCON 9 launch vehicle from the Air Force Eastern Test Range (AFETR). Payload-class satellites include a variety of spacecraft equipped with specific instruments for various scientific and technological missions. These include communications satellites like Starlink; space stations such as the ISS; scientific satellites like the Hubble; Earth observation satellites from companies like Planet Labs, Umbra, and HawkEye 360; GPS; miniature CubeSats for education and research; and military/defense satellites.

Loading next visibility...
Identifier
52339, 2022-045J
Orbit
LEO
Country
Flag of USUS
Related business
Manufacturer
SpaceX/Seattle
Mission
Operational Commercial Communications
Bus & Motor
STARLINK, Unknown motor
Mass
297 kg wet, ~275 kg dry
Launch date (UTC)
2022-04-29 (4 years ago)
Launch vehicle
FALCON 9
Launch site
Air Force Eastern Test Range (AFETR)
Object type
Payload
Rocket body
Debris
Shape & HBR
Box + 1 Pan, 10.1 m
Radar Cross Section
11.087 m², Large (>1 m²)

Expand to show TLE details & history
Last TLE update: 5 hours ago

TLE from 5 hours ago
0 STARLINK-3792
1 52339U 22045J   26119.92833854  .00001172  00000-0  91702-4 0  9990
2 52339  53.2181 338.7440 0001271  90.5128 269.6010 15.08839582223380
Epoch: 2026-04-29T22:16Z
TLE epoch observation values (Epoch: 2026-04-29T22:16:48.449Z)
Latitude
-0.00003°
Longitude
146.65985°
Altitude
540.648 km
Speed
7.593 km/s
True Right ascension
22h 34m 58s
True Declination
0° 00' 00"
Sunlit
Object was in daylight at epoch
Visualization orbit readout
Latitude
Unknown
Longitude
Unknown
Altitude
Unknown
Speed
Unknown
Apparent Right ascension
Unknown
Apparent Declination
Unknown
Sunlit
N/A
Visualization observer readout
Local Sidereal Time
11:14:50
Azimuth
Unknown
Elevation
Unknown
Doppler factor
Unknown
Orbital elements
Apogee altitude
540.869 km
Perigee altitude
539.11 km
Semi-major axis
6,918.126 km
Eccentricity
0.00013
Inclination
53.2181°
RAAN
338.744°
Arg. of periapsis
90.5128°
True anomaly
269.58644°
Mean anomaly
269.601°
Eccentric anomaly
269.59372°
Mean motion
3.7719 °/min
Orbital period
95.44 mins
BSTAR
0.000091702
Loading maneuver chart data...
Computing Atmospheric mass density...

Documentation

Showing up to 5 results
|